Location: Kaiser
(34.0939°N, 117.4889°W)
Time: 03:25:46
(UTC+00:00)

Aureole 3 - Pass Details

Date: 29 October 2020
Orbit: 382 x 1232 km, 82.5° (Epoch: 26 November)

Event Time Altitude Azimuth Distance (km) Brightness Sun altitude
Rises 12:50:06 0° 354° (N) 2,898 6.9 -16.5°
Reaches altitude 10° 12:52:07 10° 355° (N) 2,100 6.2 -16.1°
Maximum altitude 12:56:50 85° 84° (E) 800 4.1 -15.2°
Drops below altitude 10° 13:02:53 10° 173° (S) 2,660 7.0 -13.9°
Sets 13:05:40 0° 174° (S) 3,733 7.7 -13.4°
